RH
95 100 99 100 98 97 98 91 93 86 79 96 97 97 94 98 99 97 95 94 78 32 27 38 29 16 13 12 13 20 27 32 35 35 32 42 52 56 60 59 66 73 77
70 87 96 98 96 98 98 98 98 98 97 98 96 97 96 97 96 96 91 70 31 22 29 19 14 13 12 12 20 29 38 40 42 40 40 51 59 72 77 81 82 74 76
43 38 46 60 94 96 97 91 98 93 93 92 94 90 71 87 84 83 59 28 25 20 14 13 13 14 14 22 35 46 48 49 51 46 49 70 76 84 86 83 74 77 84
24 19 26 40 47 57 88 48 40 75 77 80 51 49 64 85 92 84 35 29 18 15 15 16 14 16 23 38 55 59 54 49 58 60 67 70 82 97 83 79 77 91 84
25 24 18 20 25 44 75 57 48 48 65 93 84 90 90 64 81 78 33 20 15 16 18 18 18 19 32 56 67 60 52 59 65 68 78 86 89 94 91 85 80 72 73
30 22 17 23 37 56 68 64 67 68 70 69 62 82 47 69 63 30 20 17 18 20 21 19 19 25 41 66 77 69 64 68 77 87 88 77 82 97 88 84 83 78 66
18 15 16 34 45 53 56 60 59 60 73 72 69 68 57 34 34 20 19 19 21 22 20 20 24 33 55 81 80 73 70 77 82 89 85 85 90 90 84 88 88 81 74
18 16 16 32 46 59 64 62 58 71 84 44 24 18 26 33 26 18 18 18 21 22 21 22 30 57 82 91 91 88 84 84 88 90 89 91 89 92 94 90 86 82 80
12 13 19 36 44 51 68 72 66 52 41 24 24 21 21 30 22 19 20 21 22 23 24 31 61 80 88 91 92 96 94 98 98 98 100 100 100 100 97 95 99 99 93
14 17 26 33 27 26 31 44 61 39 34 32 30 21 20 28 21 19 19 22 25 26 28 48 83 92 92 92 89 89 87 93 99 100 100 100 100 100 100 100 100 100 85
15 28 25 17 14 15 16 17 24 36 39 34 26 20 24 24 18 18 19 22 25 30 33 56 64 95 97 96 99 97 90 93 100 100 98 100 100 100 100 100 100 88 36
21 20 17 11 11 12 13 15 21 29 29 23 21 23 20 17 17 18 20 24 32 39 48 73 97 100 100 100 98 93 97 99 99 94 94 100 99 100 100 100 87 33 9
22 24 23 12 11 12 13 14 17 19 19 18 18 17 16 17 19 22 27 35 45 67 99 100 100 100 100 99 100 100 100 100 100 100 100 100 100 100 100 90 44 9 8
31 39 43 33 16 12 13 14 16 16 15 15 16 16 18 20 25 30 36 46 56 97 100 99 100 100 100 100 99 100 100 100 100 100 98 96 98 98 92 41 9 8 7
41 45 45 43 32 17 14 16 16 17 18 18 19 21 24 28 34 43 61 94 100 99 99 100 100 100 100 100 100 100 100 100 99 98 98 98 99 90 29 10 9 9 9
49 43 39 34 27 20 18 19 20 22 23 25 28 31 36 56 92 100 100 94 98 100 100 100 100 100 100 100 100 100 100 100 100 100 100 99 79 21 10 9 9 10 10
80 74 48 36 35 31 29 27 27 30 34 44 74 94 100 100 100 100 100 100 100 100 99 100 100 100 100 100 100 100 100 100 100 100 98 46 12 10 10 10 10 12 14
95 96 97 99 100 100 100 99 96 100 100 99 94 90 94 94 100 100 100 100 100 100 100 100 100 100 99 98 99 100 100 100 99 68 15 12 10 10 11 12 13 14 17
100 100 100 100 97 91 89 92 98 100 100 100 100 100 100 100 100 100 100 100 100 99 99 99 98 97 98 99 100 100 100 74 19 12 11 11 11 12 13 14 16 17 30
100 100 100 100 100 100 100 100 100 100 100 100 100 100 100 100 100 100 100 100 100 100 100 100 100 100 100 100 100 77 16 12 11 11 12 12 14 15 15 16 19 21 64
100 100 100 100 100 100 100 100 100 95 96 78 83 91 100 100 100 100 100 100 100 100 100 100 100 100 100 74 17 12 11 11 12 13 15 15 16 18 18 19 23 52 68
95 99 100 99 96 89 88 100 100 100 100 100 100 100 100 100 100 100 100 100 100 100 100 100 90 49 13 11 11 11 12 14 16 16 16 18 20 20 19 24 40 73 37
100 100 100 100 83 87 99 100 100 100 99 100 100 100 100 100 100 100 100 100 99 87 51 18 10 10 10 11 12 14 15 16 16 18 19 21 20 21 25 40 64 47 28
95 100 99 100 100 100 100 100 100 100 100 100 100 100 100 100 100 97 78 42 16 9 9 9 10 11 12 13 14 16 17 18 19 20 19 18 24 28 45 60 54 31 30
100 100 100 100 100 100 100 100 100 100 100 100 98 90 73 46 19 10 8 9 9 9 10 10 11 12 12 14 16 18 19 19 17 14 15 24 37 59 65 57 35 33 36
100 100 100 100 100 99 96 88 72 48 25 13 9 8 9 9 9 9 9 9 10 10 10 11 12 15 16 17 16 14 10 8 9 15 30 52 68 69 52 38 37 39 56
Wind_Speed
18 21 26 31 30 31 29 37 29 34 37 39 42 39 40 32 32 28 27 29 29 32 34 35 35 37 40 44 49 52 54 55 54 53 50 49 55 59 61 65 68 71 74
23 26 30 32 34 35 40 38 39 37 37 35 34 43 36 29 31 27 27 31 32 33 34 35 37 40 45 49 53 55 55 56 56 52 52 54 58 61 64 67 71 74 76
25 25 25 26 30 31 22 20 24 26 25 24 24 28 28 20 23 28 30 33 34 35 36 37 41 45 49 53 55 55 56 57 56 56 57 60 61 64 67 71 74 76 79
25 24 26 27 26 29 27 23 22 23 25 26 28 24 26 27 28 28 32 35 36 36 38 41 45 49 53 55 56 57 57 59 57 58 64 67 68 71 74 76 79 79 80
29 28 29 29 30 30 27 26 24 26 28 27 29 29 30 33 32 35 38 38 37 38 41 45 49 53 55 57 59 58 61 58 59 62 68 71 76 78 77 82 83 84 81
31 30 32 32 32 32 29 28 27 29 29 30 32 33 36 35 36 39 39 38 39 41 45 49 54 57 59 60 62 63 62 63 66 68 71 76 78 77 82 85 87 86 88
28 30 33 33 33 32 32 32 31 34 34 33 33 36 39 40 39 39 39 41 44 47 51 55 59 62 64 65 66 66 67 69 72 75 78 80 78 82 87 88 88 89 92
30 34 36 35 36 36 37 38 37 36 36 38 39 40 40 40 41 42 43 46 49 53 57 62 65 66 68 69 70 70 72 75 78 80 81 82 83 86 89 91 90 93 95
29 31 33 33 34 35 36 38 39 40 42 42 43 43 43 43 44 45 47 51 54 57 62 65 67 69 69 71 71 72 76 80 82 84 84 84 85 88 91 92 92 96 98
30 30 32 33 35 37 38 39 41 42 44 46 47 47 46 47 48 50 53 55 58 63 66 68 71 71 71 73 74 76 80 82 84 85 86 87 89 89 89 91 95 100 102
34 34 35 36 37 38 39 42 43 44 46 47 48 49 50 51 52 54 58 61 64 68 70 72 75 76 76 75 76 80 84 86 88 89 88 88 89 89 90 95 100 103 101
39 39 40 40 40 42 43 44 45 47 48 49 50 51 52 54 57 60 64 66 69 72 74 77 79 77 75 77 82 86 88 90 91 89 89 89 90 92 96 100 100 97 93
42 42 41 42 42 43 45 47 48 50 51 52 53 55 57 60 62 65 68 70 73 75 78 77 77 78 80 85 88 90 92 91 88 88 88 89 93 97 100 101 98 92 82
44 44 42 44 46 46 47 48 50 51 53 56 58 61 63 65 67 70 73 76 78 80 80 79 80 83 88 91 92 93 92 88 88 89 90 94 98 101 101 99 92 82 75
49 50 49 50 51 51 51 51 53 55 58 61 64 66 68 70 72 76 81 81 79 80 82 84 87 91 93 94 94 91 88 89 90 92 96 99 101 100 95 89 81 76 72
48 49 49 50 52 54 55 56 58 60 63 66 68 70 72 75 78 80 80 80 82 85 87 89 92 93 94 93 90 88 88 90 93 97 100 101 99 95 87 79 76 71 65
47 49 51 52 55 58 60 61 63 64 66 69 72 75 77 79 80 82 83 85 88 91 93 93 93 92 90 87 87 88 90 94 98 101 101 96 92 85 79 75 71 65 58
49 51 53 54 55 57 59 63 65 68 70 73 75 78 81 83 85 88 91 92 91 90 90 89 88 86 86 87 89 93 96 100 102 98 94 89 84 79 74 69 64 62 50
59 54 56 58 60 61 64 67 68 69 72 74 78 83 86 88 90 90 89 88 86 85 84 85 86 86 89 92 95 99 102 99 96 91 85 82 79 75 72 67 59 55 39
55 57 58 60 62 65 65 63 67 72 73 75 79 80 81 85 86 83 80 79 80 81 83 85 88 91 95 99 102 100 98 94 88 84 81 78 75 71 67 62 52 42 31
64 65 63 65 64 64 65 69 76 80 81 82 84 84 81 80 78 78 79 81 83 85 88 92 96 100 103 102 99 96 91 86 83 80 77 74 71 66 62 53 41 31 27
57 58 61 63 66 72 75 77 80 82 81 83 81 78 77 78 79 81 84 86 89 92 97 100 101 101 100 96 92 88 84 82 80 78 74 69 64 59 52 40 30 26 25
63 66 68 72 77 79 82 84 84 82 79 75 76 78 79 82 85 87 90 95 98 100 100 100 98 96 94 90 88 85 83 80 76 71 66 62 55 48 39 28 26 24 22
71 75 76 78 79 78 75 73 74 74 76 78 81 83 86 89 93 96 98 98 98 97 96 95 93 91 89 88 86 82 77 72 68 64 59 50 42 35 27 24 23 21 21
67 68 68 68 69 71 73 76 79 81 83 86 89 92 93 94 95 95 95 94 93 92 91 90 89 86 83 79 75 72 70 67 61 52 43 36 30 26 23 22 21 20 24
66 69 71 74 76 78 81 84 86 87 87 88 90 90 91 90 90 89 89 88 88 86 84 82 80 76 73 71 69 66 60 51 43 34 28 24 23 22 21 20 20 21 29
Wind_Direction
267 265 274 277 278 278 283 268 262 266 269 269 265 262 259 246 239 253 272 288 288 287 285 283 288 293 298 299 299 301 303 304 305 302 302 307 308 308 309 311 310 309 308
268 267 273 278 276 275 277 275 267 265 268 268 286 249 262 256 256 273 284 279 281 285 285 289 293 296 297 300 302 303 303 303 303 301 301 302 306 306 308 309 309 310 310
269 272 274 277 275 287 299 303 256 275 289 295 289 292 307 292 276 269 277 285 289 287 288 290 294 298 301 303 304 303 302 303 302 301 302 305 305 307 309 309 311 310 309
270 277 276 275 278 281 284 287 290 290 289 288 288 292 292 285 282 287 288 286 284 284 288 294 297 301 303 303 303 303 304 304 305 303 303 304 306 308 308 309 310 310 310
270 270 274 280 282 281 277 283 288 285 284 284 285 285 285 286 287 285 285 281 280 285 291 297 300 302 304 302 302 303 302 303 301 303 305 307 306 305 307 308 310 310 310
267 273 275 277 278 280 280 281 281 281 280 279 281 287 289 285 282 278 276 280 285 290 294 298 301 302 302 302 302 301 300 300 302 306 308 307 306 306 307 308 309 309 312
272 274 276 277 278 276 276 275 277 278 278 278 281 278 277 276 279 280 282 286 289 294 298 301 302 304 305 304 302 303 302 302 302 303 306 307 307 306 308 308 307 309 314
281 279 280 281 281 281 276 274 273 275 278 281 282 281 281 283 285 285 286 289 292 296 299 302 306 306 306 306 306 305 304 302 304 306 307 307 307 306 306 307 309 312 314
283 286 283 281 279 279 277 276 278 280 282 284 284 283 282 283 283 285 287 289 293 298 300 302 304 304 305 305 304 305 307 306 305 305 307 306 305 306 308 310 311 311 313
283 283 281 279 277 276 275 274 275 278 281 283 285 286 286 286 285 285 287 291 294 296 299 300 303 302 302 301 301 302 304 304 304 305 306 305 306 307 308 309 310 312 313
280 281 281 280 280 280 277 275 275 277 278 279 281 282 283 283 284 286 288 290 293 295 297 298 301 300 299 299 299 301 302 305 306 306 306 304 304 306 308 310 311 313 314
278 283 286 285 284 284 283 280 278 278 279 280 281 282 281 282 284 286 287 290 292 295 296 298 299 298 297 299 300 303 305 305 305 304 303 303 305 307 309 309 311 313 311
277 279 284 286 284 283 283 282 281 281 282 282 281 281 281 282 284 285 288 291 293 295 297 296 296 296 298 301 303 303 302 303 303 301 302 304 306 306 307 309 311 310 310
276 278 280 283 283 281 280 280 281 281 280 280 280 281 281 283 285 287 289 290 292 294 295 294 296 298 300 300 301 301 302 301 300 302 304 304 304 306 309 311 309 308 308
276 277 278 280 280 279 277 277 277 277 278 279 280 281 283 285 287 286 287 290 292 293 294 295 296 297 298 300 300 301 300 300 301 302 302 303 305 309 310 308 308 308 309
277 277 278 279 278 277 277 276 277 277 279 281 283 284 285 285 286 288 289 290 291 292 293 294 296 297 297 298 299 299 299 300 300 300 301 304 308 307 307 307 306 307 307
278 279 278 277 276 276 276 276 277 279 282 283 283 284 285 284 284 287 288 290 291 293 294 295 295 296 297 297 297 298 299 299 299 299 305 307 305 305 306 306 306 305 305
280 277 277 277 278 280 281 280 279 279 281 282 283 284 284 285 286 286 287 290 292 292 292 293 294 294 295 297 298 298 297 296 300 305 303 303 303 305 304 304 304 303 301
278 277 277 277 278 278 278 278 280 283 284 284 286 286 283 283 284 287 288 289 291 292 293 293 294 295 296 297 296 295 298 302 301 302 302 302 303 303 304 303 302 299 292
267 269 268 270 272 273 275 277 281 284 287 288 291 292 289 287 286 287 288 289 290 291 292 293 294 295 295 294 296 300 299 299 300 300 301 301 301 301 301 300 298 292 279
263 269 274 275 280 283 288 284 288 290 289 287 289 292 291 287 287 287 289 290 291 293 294 295 294 293 295 298 298 297 298 298 298 299 300 300 299 299 299 297 292 277 269
288 286 287 288 287 288 288 289 290 290 289 292 291 289 288 288 289 290 291 293 294 294 293 294 296 296 295 295 296 296 297 297 298 299 299 298 297 297 295 291 279 266 260
282 284 285 286 287 287 289 289 290 290 290 288 289 288 289 290 291 293 293 292 294 295 295 294 294 295 295 296 296 296 296 297 297 297 296 295 294 292 287 276 265 261 245
280 282 284 286 287 289 289 289 289 289 289 289 290 291 291 291 293 294 295 294 294 294 295 295 295 295 295 295 295 296 296 295 294 293 293 291 287 282 273 263 259 245 233
284 286 287 287 287 288 288 289 290 290 290 290 292 294 294 293 293 293 294 294 294 294 295 295 295 294 294 295 295 295 293 292 292 291 288 282 275 268 263 257 246 232 210
287 288 289 289 290 290 290 291 292 293 294 293 293 293 294 294 294 294 295 295 295 296 296 296 296 297 296 295 293 291 291 290 287 283 276 269 265 262 255 243 231 215 196